sat.trackr.live / text

‹ back to catalog

STARLINK-1572

NORAD 46060 · 2020-055AK

PAYLOAD ACTIVE UNKNOWN

§ Identity

Operator
Country
US
Launch date
2020-08-07
Launch site
AFETR
Launch vehicle
Mass (kg)
RCS (m²)

Purposes: comms

External: N2YO · Heavens-Above · Gunter

§ Orbital elements

Epoch: 2026-05-25T05:06:34.177248Z

Period
94.11 min
Inclination
53.1586°
Eccentricity
0.0000906
Mean motion
15.30177323 rev/d
Perigee alt
474.7 km
Apogee alt
475.9 km
Semi-major
6,853.4 km
B*
-2.6201e-5
RAAN
118.6729°
Arg perigee
81.8124°
Mean anomaly
278.2979°
Rev number
32,075

§ Raw data

STARLINK-15721 46060U 20055AK  26145.21289557 -.00001134  00000+0 -26201-4 0  99902 46060  53.1586 118.6729 0000906  81.8124 278.2979 15.30177323320752

JSON: /api/v1/satellites/46060 · /tle

For live sub-satellite position, see the globe view (requires WebGL).

§ Visibility from observer

Set your observer location to see the next 7 days of passes ≥ 10°. The values pass through the URL so the page stays shareable.

No JS? Fill the form by hand. The geolocation button needs JavaScript.